Zurück zum Katalog

ECHOSTAR 23

AktivKommunikationGEO
NORAD 42070·PAYLOAD·🇺🇸 United States

Gestartet Mar 16, 2017 von Cape Canaveral Space Force Station

Loading…

TLE

AktuellSource: Space-Track

Epoche: Sep 14, 2026, 12:29 UTC

1 42070U 17014A   26257.52058617  .00000000  00000-0  00000-0 0  9992
2 42070   0.0212 157.6285 0002082  10.1907 263.1861  1.00269619 34811

Verfolge ECHOSTAR 23 in Echtzeit mit AllMySat

Download on the App Store